Dewpoint
48 48 48 48 48 48 49 52 53 53 53 54 54 55 56 56 56 56 57 58 59 59 59 60 57 57 57 57 58 58 58 57 57 57 57 56 55 55 55 56 56 56 56 57 57 57 56 56 54 53 52 52 53 53 54 55 54 53 52 51 50 50 49 48 47 47 46 46 46
48 48 49 50 49 49 50 55 55 55 55 55 56 56 56 56 56 56 56 57 58 59 59 59 57 56 57 57 58 58 58 58 57 57 56 56 55 55 55 56 56 56 57 57 58 58 58 56 54 52 52 52 52 52 52 53 53 53 52 50 49 49 48 48 47 46 46 46 46
48 49 49 50 50 50 52 55 55 55 54 54 56 56 56 56 56 56 57 57 58 58 58 57 56 56 56 57 57 58 58 58 57 56 56 55 55 55 55 56 56 56 57 57 58 58 58 57 54 52 52 52 52 52 52 52 52 52 52 50 49 48 48 47 47 46 46 46 46
50 50 50 50 50 52 53 55 54 53 52 52 55 56 56 56 56 57 57 57 58 58 59 59 57 56 56 56 57 57 58 58 57 56 56 55 55 55 55 56 56 56 57 57 58 58 58 57 56 54 52 52 52 52 52 52 52 51 50 50 49 48 48 47 47 47 46 46 46
50 51 51 52 53 54 55 55 54 52 52 53 56 56 56 56 56 57 58 58 57 58 58 59 58 57 57 56 57 57 57 57 56 56 56 56 55 55 55 56 56 57 57 57 57 57 57 57 57 55 53 52 52 53 55 55 54 52 52 50 49 48 47 47 47 47 47 46 46
51 52 52 55 56 56 56 56 55 55 55 56 56 56 56 56 56 57 57 58 57 57 58 58 58 58 58 57 57 57 57 57 56 56 56 56 55 55 56 56 56 57 57 57 57 57 57 56 56 56 55 54 53 53 54 56 56 56 55 54 50 48 48 47 47 47 47 46 46
52 53 54 55 55 55 55 55 55 56 56 56 56 56 56 56 56 56 56 58 58 58 58 58 59 59 58 58 57 57 57 57 56 56 56 56 56 56 56 56 56 57 56 56 56 56 56 56 56 55 54 54 53 53 54 56 56 56 56 56 52 49 48 47 47 47 47 46 46
54 54 54 54 53 54 54 54 55 55 55 55 56 56 56 56 56 56 56 57 58 58 58 58 59 59 59 58 57 57 57 56 56 56 56 56 56 56 56 56 57 57 56 56 56 56 55 55 54 53 53 53 53 53 54 55 56 56 55 55 52 49 48 47 47 47 47 46 46
55 55 54 53 53 54 54 54 55 55 55 55 56 56 56 56 56 56 56 56 58 58 59 59 59 59 58 58 57 56 56 56 56 56 56 56 56 56 56 56 56 56 56 56 56 55 55 54 53 52 52 52 52 53 54 55 55 55 54 52 50 48 48 47 47 47 47 47 46
55 54 54 54 54 54 54 54 54 55 55 56 56 56 56 56 56 56 57 57 57 58 58 58 58 58 58 57 57 56 56 56 56 56 56 56 56 56 56 56 56 56 56 56 56 56 55 53 52 51 51 51 52 52 53 54 54 53 52 50 49 48 48 47 48 48 47 47 47
54 54 55 54 54 54 54 54 54 55 55 56 56 56 56 56 56 57 57 57 57 58 58 58 58 58 57 57 56 56 55 56 56 56 56 56 56 56 56 56 56 56 56 56 56 56 55 53 52 51 51 51 51 52 52 52 52 51 49 48 48 48 48 48 48 48 47 47 47
54 55 55 55 54 54 54 54 54 55 55 55 56 56 56 56 56 57 57 57 57 57 58 58 58 57 57 56 55 55 55 55 56 56 56 56 56 56 56 56 56 56 56 56 56 56 55 54 52 51 51 51 51 51 51 50 50 49 48 48 48 47 47 47 47 47 47 47 47
55 56 55 55 54 54 54 54 55 55 55 55 55 56 56 56 56 56 57 57 57 58 58 58 58 57 56 56 55 55 55 55 55 55 56 56 56 56 56 56 56 56 55 56 56 56 55 54 53 52 52 51 51 50 50 49 48 48 47 47 47 47 47 47 47 47 47 47 47
56 56 56 55 54 54 54 54 55 55 55 56 56 56 56 56 56 57 57 57 57 58 58 58 58 57 56 55 55 55 55 55 55 55 55 56 56 56 56 56 56 56 56 56 56 56 55 55 54 53 53 52 51 50 49 48 48 47 47 47 47 47 47 47 47 47 47 47 47
56 56 56 55 54 54 54 55 55 55 55 56 56 56 56 56 56 57 57 57 57 58 58 58 57 56 56 55 55 55 55 55 55 55 55 56 56 56 56 56 56 56 56 56 56 56 56 55 55 54 53 52 50 48 48 48 47 47 47 47 47 47 46 46 47 47 47 48 48
55 55 55 54 53 53 53 54 55 56 56 55 55 56 56 56 56 57 57 57 57 58 58 57 56 56 55 55 55 55 55 55 55 55 55 55 56 56 56 55 55 55 55 55 56 56 56 56 55 54 53 51 49 48 47 47 47 46 46 46 46 46 46 46 47 47 48 49 49
54 54 53 53 53 52 53 53 55 56 56 55 55 55 56 56 57 57 56 57 57 57 57 56 56 55 55 55 55 56 56 56 56 56 55 55 55 55 55 55 55 55 55 55 55 56 56 56 56 55 53 51 49 48 47 47 46 46 46 46 46 46 46 47 47 48 49 50 50
53 53 53 53 53 53 53 53 55 56 56 56 56 56 56 57 56 56 56 56 56 56 56 55 56 56 56 56 56 56 56 56 56 56 56 55 55 55 55 55 55 55 55 55 56 56 56 56 56 56 54 52 50 48 47 46 46 45 46 46 46 46 46 47 48 49 50 50 51
52 52 53 53 54 54 54 54 56 56 56 56 56 56 56 56 56 55 55 55 55 55 55 55 56 56 56 56 56 56 56 56 56 56 56 55 55 55 55 55 56 56 56 56 56 56 56 56 56 56 55 53 50 47 46 45 45 45 46 46 46 47 47 48 49 50 50 50 51
52 53 54 54 54 54 55 55 56 57 57 57 56 56 56 56 55 55 54 54 54 54 55 55 56 56 56 56 56 56 56 56 56 56 56 55 55 55 55 56 56 56 56 56 56 56 56 56 56 56 54 52 47 46 45 45 45 45 46 46 47 48 50 51 52 52 52 53 53
54 54 54 55 54 54 55 56 56 57 57 56 56 56 56 56 55 55 55 55 55 55 55 56 56 56 56 56 56 55 56 56 56 56 55 56 56 56 56 56 56 56 56 56 56 56 56 56 55 54 52 48 46 45 45 45 45 45 46 47 49 52 53 53 53 53 53 53 53
54 54 55 54 54 54 55 56 56 56 56 56 56 56 56 56 56 56 56 55 55 55 56 56 56 56 56 56 55 55 56 56 56 55 55 56 55 56 56 56 56 56 55 56 55 55 54 53 52 50 48 47 46 46 46 46 48 50 52 52 53 53 52 52 52 52 52 51 51
54 55 55 55 54 54 55 56 56 56 56 56 56 56 56 56 56 56 56 56 56 56 56 57 56 56 56 56 56 55 55 55 55 55 55 55 55 55 55 55 55 54 54 54 53 53 52 51 50 50 49 49 47 46 47 48 52 53 53 53 52 52 51 51 51 50 50 50 50
55 55 55 55 55 55 56 56 56 56 56 56 56 57 58 58 58 57 57 57 57 57 57 57 56 56 56 56 56 56 55 55 55 55 55 55 54 53 52 53 53 52 52 52 52 52 51 51 51 52 52 51 48 48 49 52 53 53 52 52 52 51 50 50 50 50 50 50 50
56 56 56 56 56 56 56 56 56 56 56 57 57 58 58 58 57 57 57 57 57 57 56 56 56 56 56 56 56 56 56 55 54 54 54 54 53 52 51 51 51 51 51 51 52 52 52 52 52 52 52 51 49 50 52 53 53 52 52 51 51 50 49 49 49 49 49 49 49
56 56 56 56 56 56 56 56 56 56 57 57 57 57 57 57 57 57 57 57 57 56 56 56 56 56 56 56 56 56 56 56 55 54 54 53 53 52 52 52 52 52 52 52 52 52 53 53 53 53 52 51 51 52 52 52 52 52 51 50 50 49 49 48 48 48 49 49 49
56 56 55 56 56 56 56 56 57 57 57 57 57 57 57 57 57 57 56 56 56 56 56 56 56 56 56 56 56 56 56 56 55 55 54 53 53 54 54 55 55 55 55 54 53 54 54 55 54 53 53 52 52 52 52 52 51 51 50 50 49 48 48 48 48 48 48 48 49
56 56 56 57 56 56 56 56 57 57 57 57 57 57 57 57 57 56 56 56 56 56 56 56 56 56 56 56 56 55 55 55 56 55 54 53 54 55 56 56 56 56 55 54 55 55 55 55 54 53 52 52 52 52 52 51 51 50 50 49 48 48 48 48 48 48 48 48 49
56 57 57 56 56 55 55 56 56 57 57 57 57 57 57 57 56 56 56 56 56 56 56 57 57 57 57 56 56 55 55 55 55 55 55 55 55 55 55 55 55 54 54 55 55 55 55 54 54 53 52 52 52 52 51 51 50 50 49 49 48 48 48 47 47 47 47 48 48
56 56 56 54 53 54 55 56 56 57 57 57 57 57 57 56 56 56 56 57 57 57 57 57 57 57 56 56 56 56 55 55 55 55 55 55 55 55 55 55 55 54 54 54 55 54 54 53 53 53 52 52 51 51 51 50 50 49 49 48 48 48 47 47 47 47 47 47 47
56 56 54 53 54 55 56 56 57 57 57 57 57 57 56 56 56 57 57 57 57 57 57 57 56 56 56 55 55 55 54 54 54 54 53 53 54 54 54 54 54 54 53 53 54 54 53 53 53 52 52 52 51 51 50 50 49 49 49 48 48 47 47 47 47 47 47 46 46
54 54 54 55 56 56 56 57 57 57 57 57 57 57 56 56 57 57 57 57 56 56 56 56 55 54 54 54 54 53 53 53 52 52 52 52 52 52 52 53 53 53 53 53 53 53 53 53 52 52 52 51 50 50 50 49 49 49 48 48 47 47 47 47 47 47 46 46 46
53 54 55 56 56 56 56 56 56 57 57 57 56 56 56 56 56 56 56 56 56 56 55 54 54 53 53 52 52 52 52 52 52 52 52 52 52 51 51 52 52 52 52 52 52 52 52 52 52 52 51 50 50 49 49 49 48 48 48 47 47 47 47 47 46 46 46 46 45
54 55 56 56 55 56 56 56 56 56 56 56 56 56 56 55 55 55 54 54 54 54 54 53 53 53 52 52 52 51 51 51 51 51 51 51 50 50 50 50 51 51 51 52 52 52 51 51 51 51 50 50 49 49 48 48 48 47 47 47 47 47 46 46 46 45 45 45 45
55 55 55 54 54 54 55 55 55 55 55 55 55 55 54 54 53 53 53 52 52 52 52 52 52 52 52 51 51 50 50 49 49 49 49 49 49 49 49 49 50 50 51 51 51 51 51 50 50 50 49 48 48 48 47 47 47 46 46 45 45 45 45 45 44 44 44 44 44
54 54 54 54 54 54 54 54 54 54 53 53 53 53 53 53 53 52 52 52 51 51 51 51 51 51 50 50 49 49 49 48 48 48 48 48 48 48 48 48 49 49 50 50 50 50 50 50 49 49 48 47 47 47 46 46 45 45 45 44 44 44 44 44 43 43 43 43 43
53 53 53 53 53 53 53 53 53 52 52 52 52 52 52 52 52 52 52 51 51 50 50 50 50 49 49 49 49 48 48 48 47 47 47 47 47 47 47 47 47 48 49 50 50 49 49 49 48 48 47 47 46 45 45 45 44 44 44 44 43 44 44 43 43 43 43 42 43
53 53 53 52 52 52 52 52 52 52 52 52 52 52 52 52 52 52 51 50 50 49 49 49 49 48 48 48 48 48 47 47 47 47 46 46 46 46 46 46 47 47 48 49 49 49 49 48 48 47 47 46 45 45 45 44 44 43 43 43 43 43 43 43 43 43 43 43 43
52 52 52 52 52 52 52 52 52 51 51 51 51 51 51 51 51 51 50 49 49 48 48 48 48 48 47 47 47 47 47 47 46 46 46 45 45 46 46 46 46 47 47 48 48 48 48 48 47 47 47 46 45 45 44 44 43 43 43 43 43 43 43 43 43 43 43 43 43
52 52 51 51 51 51 51 51 51 51 51 51 51 50 50 50 50 50 49 49 48 48 47 47 47 47 47 47 46 46 45 45 45 45 45 45 45 45 45 45 46 46 47 47 48 48 48 47 47 47 47 46 45 45 44 44 43 43 43 42 42 42 43 43 43 43 43 43 43
50 50 50 50 50 50 50 50 50 50 50 50 50 50 50 50 49 49 49 48 48 47 47 47 47 47 47 46 46 45 45 45 45 45 44 44 44 45 45 45 45 46 46 47 47 47 47 47 47 47 47 46 45 45 44 43 43 42 42 42 42 42 42 42 43 43 43 43 43